#timestamp,LO_Frequency,Hit,StdDev 
1556557215.7,286047000.8,N
1556557235.5,286046998.6,N
1556557255.4,286046998.9,N
1556557275.2,286046999.0,N
1556557295.0,286046998.7,N
1556557295.9,286046998.7,N
1556557315.8,286046999.3,N
1556557335.6,286046999.4,N
1556557355.5,286046996.7,Y
1556557375.3,286046996.7,P
1556557395.1,286046996.9,N
1556557415.9,286046996.8,N
1556557435.7,286046997.5,N
1556557455.6,286046997.8,N
1556557475.4,286046995.4,Y
1556557495.2,286046998.1,P
1556557515.1,286047000.9,P
1556557516.0,286047000.9,N
1556557535.8,286046998.2,N
1556557555.7,286046998.6,N
1556557575.5,286046998.3,N
1556557595.3,286046998.6,N
1556557615.2,286046998.4,N
1556557635.0,286046998.8,N
1556557635.9,286046998.8,N
1556557655.7,286046998.8,N
1556557675.6,286046999.0,N
1556557695.4,286046998.5,N
1556557715.3,286046999.3,N
1556557735.1,286046999.1,N
1556557736.0,286046999.1,N
1556557755.8,286046999.3,N
1556557775.7,286046997.1,Y
1556557795.5,286046999.4,P
1556557815.4,286046999.2,P
1556557835.2,286046999.1,P
1556557855.0,286046999.2,Y
1556557855.9,286046999.2,P
1556557875.8,286046998.6,P
1556557895.6,286047000.8,N
1556557915.4,286046998.4,N
1556557935.3,286046998.4,N
1556557955.1,286046998.8,N
1556557975.9,286046998.4,N
1556557995.7,286046998.2,N
1556558015.5,286047000.6,N
1556558035.4,286047001.1,N
1556558055.2,286047000.6,N
1556558075.0,286046999.8,N
1556558076.0,286046999.8,N
1556558095.8,286047000.3,N
1556558115.6,286047000.0,N
1556558135.5,286047000.1,N
1556558155.3,286047000.3,N
1556558175.1,286046999.7,N
1556558195.9,286047002.3,N
1556558215.7,286047002.2,N
1556558235.6,286047002.3,N
1556558255.4,286047002.3,N
1556558275.2,286047002.3,N
1556558295.1,286047002.2,N
1556558296.0,286047002.2,N
1556558315.8,286047001.8,N
1556558335.6,286047001.3,N
1556558355.5,286047003.9,N
1556558375.3,286047003.8,N
1556558395.2,286047003.4,N
1556558415.9,286047003.0,N
1556558435.7,286047003.4,N
1556558455.6,286047003.2,N
1556558475.4,286047003.0,N
1556558495.2,286047006.0,Y
1556558515.1,286047003.8,P
1556558516.0,286047003.8,P
1556558535.8,286047003.0,N
1556558555.7,286047003.6,Y
1556558575.5,286047002.8,P
1556558595.3,286047002.7,P
1556558615.2,286046999.9,N
1556558635.0,286047002.4,N
1556558635.9,286047002.4,N
1556558655.8,286047002.5,N
1556558675.6,286047001.9,N
1556558695.4,286047001.8,N
1556558715.3,286047004.4,Y
1556558735.1,286046999.9,P
1556558755.9,286047002.5,N
1556558775.7,286047002.6,N
1556558795.5,286047002.1,N
1556558815.4,286047001.4,N
1556558835.2,286047001.6,N
1556558855.0,286047004.3,Y
1556558855.9,286047004.3,P
1556558875.8,286047002.2,N
1556558895.6,286047001.9,N
1556558915.5,286047001.7,N
1556558935.3,286047001.4,N
1556558955.1,286047004.4,Y
1556558975.9,286047002.8,P
1556558995.7,286047000.2,N
1556559015.6,286047002.6,N
1556559035.4,286047002.3,N
1556559055.2,286047002.0,N
1556559075.1,286047002.5,N
1556559076.0,286047002.5,Y
1556559095.8,286047000.4,P
1556559115.6,286047000.2,N
1556559135.5,286046999.8,N
1556559155.3,286047002.4,N
1556559175.2,286047002.5,N
1556559195.9,286047002.6,N
1556559215.7,286047002.0,N
1556559235.6,286047004.4,Y
1556559255.4,286047002.7,P
1556559275.2,286047000.2,N
1556559295.1,286046999.7,N
1556559296.0,286046999.7,N
1556559315.8,286047001.9,N
1556559335.7,286047001.7,N
1556559355.5,286047001.6,N
1556559375.3,286047001.5,N
1556559395.2,286047001.7,N
1556559415.0,286047003.9,Y
1556559415.9,286047003.9,P
1556559435.8,286047002.5,N
1556559455.6,286047002.5,N
1556559475.4,286047001.9,N
1556559495.3,286047001.7,N
1556559515.1,286047001.3,N
1556559535.9,286047003.9,Y
1556559555.7,286047000.1,P
1556559575.5,286047002.7,N
1556559595.4,286047001.5,N
1556559615.2,286047002.1,N
1556559635.0,286047001.4,N
1556559636.0,286047001.4,N
1556559655.8,286047004.3,Y
1556559675.6,286047002.4,P
1556559695.5,286047002.3,P
1556559715.3,286047002.3,P
1556559735.1,286047002.1,Y
1556559755.9,286047000.4,P
1556559775.7,286046999.9,N
1556559795.6,286047000.6,N
1556559815.4,286047000.3,N
1556559835.2,286047000.0,N
1556559855.1,286047002.3,Y
1556559856.0,286047002.3,P
1556559875.8,286047000.2,N
1556559895.7,286047002.5,N
1556559915.5,286047002.4,N
1556559935.3,286047002.3,N
1556559955.2,286047002.4,N
1556559975.9,286047002.3,N
1556559995.7,286047002.2,N
1556560015.6,286047001.6,N
1556560035.4,286047001.4,N
1556560055.3,286047004.3,Y
1556560075.1,286047000.2,P
1556560076.0,286047000.2,N
1556560095.8,286046999.7,N
1556560115.7,286047002.8,Y
1556560135.5,286046999.9,P
1556560155.4,286047002.8,P
1556560175.2,286047001.6,N
1556560195.0,286047002.5,N
1556560195.9,286047002.5,N
1556560215.8,286047002.5,N
1556560235.6,286047002.2,N
1556560255.4,286047002.1,N
1556560275.3,286047001.8,N
1556560295.1,286047001.3,N
1556560315.9,286047004.4,Y
1556560335.7,286047002.8,P
1556560355.5,286046999.7,N
1556560375.4,286047002.4,N
1556560395.2,286047002.5,N
1556560415.0,286047002.1,N
1556560416.0,286047002.1,N
1556560435.8,286047002.3,N
1556560455.6,286047002.7,N
1556560475.5,286047001.4,N
1556560495.3,286047004.4,Y
1556560515.1,286047002.8,P
1556560535.9,286047002.3,P
1556560555.7,286047002.8,P
1556560575.6,286047002.6,Y
1556560595.4,286046998.6,P
1556560615.2,286046998.1,N
1556560635.1,286047000.8,N
1556560636.0,286047000.8,N
1556560655.8,286047001.0,N
1556560675.7,286047000.5,N
1556560695.5,286047000.0,N
1556560715.3,286046999.9,N
1556560735.2,286047000.2,N
1556560755.9,286046999.9,N
1556560775.7,286047000.3,N
1556560795.6,286047002.7,N
